User: anonymous   Login
Location: Jarocin
(51.9626°N, 17.5030°E)
Time: 17:32:54
(UTC+01:00)
Language:

ISS - Orbit

View from above orbital plane
View from above orbital plane
View from above satellite
View from above satellite

Ground track
Ground track

The orbit data is extracted from the following two-line orbital elements,

1 25544U 98067A   19051.26357124  .00016717  00000-0  10270-3 0  9025
2 25544  51.6398 222.6292 0005800  43.3373 316.8234 15.53290395 37082
Epoch (UTC): 20 February 2019 06:19:32
Eccentricity: 0.0005800
inclination: 51.6398°
perigee height: 403 km
apogee height: 411 km
right ascension of ascending node: 222.6292°
argument of perigee: 43.3373°
revolutions per day: 15.53290395
mean anomaly at epoch: 316.8234°
orbit number at epoch: 3708

The dashed part of the orbit path shows where the satellite is in the earth's shadow,  

DLR